Weather History for KOXV - October, 2014

Change the Weather History Date:

Sunday, October 5, 2014

  Actual Average Record
Temperature  
Mean Temperature 52 °F -  
Max Temperature 66 °F 69 °F 94 °F (1963)
Min Temperature 39 °F 47 °F 27 °F (1988)
Degree Days  
Heating Degree Days 12    
Growing Degree Days 2 (Base 50)    
Moisture  
Dew Point 38 °F    
Average Humidity 60    
Maximum Humidity 87    
Minimum Humidity 32    
Precipitation  
Precipitation 0.00 in - - ()
Sea Level Pressure  
Sea Level Pressure 29.69 in    
Wind  
Wind Speed 6 mph (West)    
Max Wind Speed 18 mph    
Max Gust Speed 26 mph    
Visibility 10 miles    
Events      
Averages and records for this station are not official NWS values.
T = Trace of Precipitation, MM = Missing Value Source: NWS Daily Summary

Daily Weather History Graph

Daily Weather History Graph

Search for Another Location

Airport or City:

Trip Planner

Search our weather history database for the weather conditions in past years. The results will help you decide how hot, cold, wet, or windy it might be!

Date:

Astronomy

Oct. 05, 2014 Rise Set
Actual Time 7:13 AM CDT 6:47 PM CDT
Civil Twilight 6:45 AM CDT 7:15 PM CDT
Nautical Twilight 6:13 AM CDT 7:47 PM CDT
Astronomical Twilight 5:41 AM CDT 8:19 PM CDT
Moon 5:07 PM CDT (10/5) 3:49 AM CDT (10/5)
Length of Visible Light 12h 29m
Length of Day
11h 34m
Waxing Gibbous, 89% of the Moon is Illuminated
Oct 5
Waxing Gibbous
Oct 8
Full
Oct 15
Last Quarter
Oct 23
New
Oct 30
First Quarter

Hourly Weather History & Observations

Time (CDT) Temp. Windchill Dew Point Humidity Pressure Visibility Wind Dir Wind Speed Gust Speed Precip Events Conditions
12:15 AM 39.2 °F 35.9 °F 32.0 °F 75% 29.78 in 10.0 mi SW 4.6 mph - N/A   Overcast
12:35 AM 39.2 °F 35.0 °F 33.8 °F 81% 29.78 in 10.0 mi SW 5.8 mph - N/A   Overcast
12:55 AM 41.0 °F 37.1 °F 33.8 °F 76% 29.78 in 10.0 mi WSW 5.8 mph - N/A   Overcast
1:15 AM 41.0 °F - 33.8 °F 76% 29.78 in 10.0 mi Calm Calm - N/A   Overcast
1:35 AM 41.0 °F 38.0 °F 33.8 °F 76% 29.78 in 10.0 mi WSW 4.6 mph - N/A   Overcast
1:55 AM 41.0 °F 39.0 °F 33.8 °F 76% 29.78 in 10.0 mi WSW 3.5 mph - N/A   Overcast
2:15 AM 41.0 °F - 33.8 °F 76% 29.78 in 10.0 mi Calm Calm - N/A   Overcast
2:35 AM 42.8 °F 38.6 °F 35.6 °F 76% 29.78 in 10.0 mi SW 6.9 mph - N/A   Mostly Cloudy
2:55 AM 41.0 °F - 35.6 °F 81% 29.77 in 10.0 mi Calm Calm - N/A   Overcast
3:15 AM 41.0 °F 36.4 °F 35.6 °F 81% 29.76 in 10.0 mi SSW 6.9 mph - N/A   Overcast
3:35 AM 42.8 °F - 35.6 °F 76% 29.74 in 10.0 mi Calm Calm - N/A   Overcast
3:55 AM 42.8 °F 40.1 °F 35.6 °F 76% 29.73 in - SSW 4.6 mph - N/A   Overcast
4:15 AM 42.8 °F 40.1 °F 35.6 °F 76% 29.73 in 10.0 mi SSW 4.6 mph - N/A   Overcast
4:35 AM 42.8 °F 39.3 °F 37.4 °F 81% 29.73 in 10.0 mi SSW 5.8 mph - N/A   Overcast
4:55 AM 42.8 °F 39.3 °F 35.6 °F 76% 29.73 in 10.0 mi WNW 5.8 mph - N/A   Overcast
5:15 AM 42.8 °F 40.1 °F 35.6 °F 76% 29.73 in 10.0 mi WNW 4.6 mph - N/A   Overcast
5:35 AM 42.8 °F - 35.6 °F 76% 29.73 in 10.0 mi Calm Calm - N/A   Overcast
5:55 AM 44.6 °F - 35.6 °F 71% 29.72 in 10.0 mi Calm Calm - N/A   Overcast
6:15 AM 42.8 °F 41.1 °F 37.4 °F 81% 29.72 in 10.0 mi SSE 3.5 mph - N/A   Overcast
6:35 AM 42.8 °F - 39.2 °F 87% 29.72 in 10.0 mi Calm Calm - N/A   Overcast
6:55 AM 42.8 °F 40.1 °F 39.2 °F 87% 29.71 in 10.0 mi South 4.6 mph - N/A   Overcast
7:15 AM 42.8 °F 39.3 °F 37.4 °F 81% 29.71 in 10.0 mi SSW 5.8 mph - N/A   Overcast
7:35 AM 42.8 °F 38.6 °F 37.4 °F 81% 29.70 in 10.0 mi SW 6.9 mph - N/A   Overcast
7:55 AM 44.6 °F 40.7 °F 37.4 °F 76% 29.71 in 10.0 mi SW 6.9 mph - N/A   Overcast
8:15 AM 44.6 °F 41.4 °F 37.4 °F 76% 29.70 in 10.0 mi SW 5.8 mph - N/A   Overcast
8:35 AM 44.6 °F 42.2 °F 37.4 °F 76% 29.70 in 10.0 mi WSW 4.6 mph - N/A   Mostly Cloudy
8:55 AM 48.2 °F - 37.4 °F 66% 29.70 in 10.0 mi WSW 5.8 mph - N/A   Mostly Cloudy
9:15 AM 48.2 °F - 37.4 °F 66% 29.70 in 10.0 mi West 5.8 mph - N/A   Overcast
9:35 AM 50.0 °F - 37.4 °F 62% 29.70 in 10.0 mi West 6.9 mph - N/A   Overcast
9:55 AM 51.8 °F - 37.4 °F 58% 29.71 in 10.0 mi West 8.1 mph - N/A   Overcast
10:15 AM 53.6 °F - 39.2 °F 58% 29.71 in 10.0 mi West 6.9 mph 13.8 mph N/A   Scattered Clouds
10:35 AM 55.4 °F - 35.6 °F 47% 29.71 in 10.0 mi WNW 11.5 mph - N/A   Clear
10:55 AM 55.4 °F - 35.6 °F 47% 29.71 in 10.0 mi NW 13.8 mph - N/A   Clear
11:15 AM 55.4 °F - 35.6 °F 47% 29.71 in 10.0 mi NW 11.5 mph - N/A   Clear
11:35 AM 57.2 °F - 35.6 °F 44% 29.71 in 10.0 mi NW 11.5 mph 18.4 mph N/A   Clear
11:55 AM 57.2 °F - 37.4 °F 48% 29.70 in 10.0 mi NW 12.7 mph - N/A   Clear
12:15 PM 57.2 °F - 35.6 °F 44% 29.70 in 10.0 mi NW 10.4 mph - N/A   Scattered Clouds
12:35 PM 59.0 °F - 35.6 °F 42% 29.70 in 10.0 mi WNW 10.4 mph 19.6 mph N/A   Overcast
12:55 PM 59.0 °F - 35.6 °F 42% 29.70 in 10.0 mi WNW 10.4 mph 18.4 mph N/A   Mostly Cloudy
1:15 PM 60.8 °F - 35.6 °F 39% 29.69 in 10.0 mi NW 12.7 mph 18.4 mph N/A   Mostly Cloudy
1:35 PM 60.8 °F - 35.6 °F 39% 29.68 in 10.0 mi West 16.1 mph 23.0 mph N/A   Mostly Cloudy
1:55 PM 59.0 °F - 37.4 °F 45% 29.68 in 10.0 mi WNW 9.2 mph 18.4 mph N/A   Mostly Cloudy
2:15 PM 60.8 °F - 35.6 °F 39% 29.67 in 10.0 mi WNW 11.5 mph 20.7 mph N/A   Mostly Cloudy
2:35 PM 62.6 °F - 35.6 °F 37% 29.66 in 10.0 mi West 18.4 mph 24.2 mph N/A   Mostly Cloudy
2:55 PM 64.4 °F - 37.4 °F 37% 29.65 in 10.0 mi NW 17.3 mph 24.2 mph N/A   Scattered Clouds
3:15 PM 64.4 °F - 37.4 °F 37% 29.64 in 10.0 mi WNW 13.8 mph 23.0 mph N/A   Scattered Clouds
3:35 PM 62.6 °F - 37.4 °F 39% 29.64 in - West 16.1 mph - N/A   Partly Cloudy
3:55 PM 64.4 °F - 35.6 °F 34% 29.64 in 10.0 mi West 17.3 mph - N/A   Scattered Clouds
4:15 PM 66.2 °F - 37.4 °F 35% 29.64 in 10.0 mi WNW 16.1 mph 25.3 mph N/A   Scattered Clouds
4:35 PM 66.2 °F - 35.6 °F 32% 29.64 in 10.0 mi West 17.3 mph 26.5 mph N/A   Scattered Clouds
4:55 PM 64.4 °F - 35.6 °F 34% 29.64 in 10.0 mi West 13.8 mph 23.0 mph N/A   Scattered Clouds
5:15 PM 64.4 °F - 37.4 °F 37% 29.64 in 10.0 mi West 15.0 mph 20.7 mph N/A   Mostly Cloudy
5:35 PM 62.6 °F - 37.4 °F 39% 29.63 in 10.0 mi West 11.5 mph - N/A   Overcast
5:55 PM 62.6 °F - 39.2 °F 42% 29.63 in 10.0 mi West 8.1 mph 15.0 mph N/A   Overcast
6:15 PM 62.6 °F - 39.2 °F 42% 29.63 in 10.0 mi WSW 8.1 mph - N/A   Overcast
6:35 PM 60.8 °F - 41.0 °F 48% 29.63 in 10.0 mi WSW 8.1 mph - N/A   Overcast
6:55 PM 60.8 °F - 41.0 °F 48% 29.64 in 10.0 mi WSW 9.2 mph - N/A   Overcast
7:15 PM 59.0 °F - 41.0 °F 51% 29.65 in 10.0 mi WNW 9.2 mph - N/A   Mostly Cloudy
7:35 PM 59.0 °F - 41.0 °F 51% 29.65 in 10.0 mi NW 8.1 mph - N/A   Mostly Cloudy
7:50 PM 57.2 °F - 41.0 °F 55% 29.66 in 10.0 mi WNW 6.9 mph - N/A   Overcast
8:15 PM 55.4 °F - 41.0 °F 58% 29.66 in 10.0 mi WNW 4.6 mph - N/A   Mostly Cloudy
8:35 PM 55.4 °F - 41.0 °F 58% 29.66 in 10.0 mi West 4.6 mph - N/A   Mostly Cloudy
8:55 PM 55.4 °F - 41.0 °F 58% 29.66 in 10.0 mi West 4.6 mph - N/A   Overcast
9:15 PM 55.4 °F - 41.0 °F 58% 29.65 in 10.0 mi SW 4.6 mph - N/A   Overcast
9:35 PM 53.6 °F - 42.8 °F 67% 29.65 in 10.0 mi SW 4.6 mph - N/A   Overcast
9:55 PM 55.4 °F - 42.8 °F 63% 29.65 in 10.0 mi SW 4.6 mph - N/A   Overcast
10:15 PM 55.4 °F - 42.8 °F 63% 29.65 in 10.0 mi West 5.8 mph - N/A   Overcast
10:35 PM 53.6 °F - 41.0 °F 62% 29.64 in 10.0 mi WSW 5.8 mph - N/A   Mostly Cloudy
10:55 PM 51.8 °F - 42.8 °F 71% 29.64 in 10.0 mi SW 8.1 mph - N/A   Mostly Cloudy
11:15 PM 51.8 °F - 44.6 °F 76% 29.64 in 10.0 mi SW 9.2 mph - N/A   Mostly Cloudy
11:35 PM 51.8 °F - 42.8 °F 71% 29.64 in - SW 9.2 mph - N/A   Scattered Clouds
11:55 PM 51.8 °F - 42.8 °F 71% 29.63 in 10.0 mi SW 10.4 mph - N/A   Mostly Cloudy